Regional Weather Roundup
Issued by NWS

Home | Current Version | Previous Version | Text Only | Print | Product List | Glossary On
Versions: 1 2 3 4 5 6 7 8 9 10 11 12 13 14 15 16 17 18 19 20 21 22 23 24 25 26 27 28 29 30 31 32 33 34 35 36 37 38 39 40 41 42 43 44 45 46 47 48 49 50
000
ASUS45 KPSR 041200
RWRAZ

ARIZONA HOURLY REGIONAL WEATHER ROUNDUP
NATIONAL WEATHER SERVICE PHOENIX AZ
500 AM MST TUE AUG 04 2015

NOTE: FAIR INDICATES FEW OR NO CLOUDS BELOW 12,000 FEET WITH NO
SIGNIFICANT WEATHER AND/OR OBSTRUCTIONS TO VISIBILITY.

AZZ001>003-036-041300-
NORTHWEST ARIZONA

CITY           SKY/WX    TMP DP  RH WIND       PRES   REMARKS
KINGMAN        CLEAR     72  34  24 CALM      29.99R
6HR MIN TEMP:  71; 6HR MAX TEMP:  81;

$$

AZZ004>008-015-016-018-041300-
NORTH CENTRAL ARIZONA

CITY           SKY/WX    TMP DP  RH WIND       PRES   REMARKS
GRAND CANYON   CLEAR     44  37  76 CALM      30.27R
6HR MIN TEMP:  43; 6HR MAX TEMP:  59;

WILLIAMS       CLEAR     52  37  58 S9        30.34R
PRESCOTT       CLEAR     62  43  49 S5        30.15R
6HR MIN TEMP:  61; 6HR MAX TEMP:  73;

FLAGSTAFF      NOT AVBL
PAYSON         CLEAR     66  43  42 CALM      30.17R
PAGE           CLEAR     72  47  40 CALM      30.07R
6HR MIN TEMP:  71; 6HR MAX TEMP:  87;

$$

AZZ009>014-017-041300-
NORTHEAST ARIZONA

CITY           SKY/WX    TMP DP  RH WIND       PRES   REMARKS
WINSLOW        NOT AVBL
SAINT JOHNS    CLEAR     62  48  60 S6        30.20R
6HR MIN TEMP:  60; 6HR MAX TEMP:  73;

$$

AZZ023-041300-
GREATER PHOENIX AREA

CITY           SKY/WX    TMP DP  RH WIND       PRES   REMARKS
PHOENIX        CLEAR     93  49  22 W8        29.82R
6HR MIN TEMP:  91; 6HR MAX TEMP:  99;

LUKE AFB       CLEAR     86  52  31 N2        29.81R
6HR MIN TEMP:  85; 6HR MAX TEMP:  95;

DEER VALLEY    CLEAR     81  45  28 CALM      29.84R
6HR MIN TEMP:  80; 6HR MAX TEMP:  95;

SCOTTSDALE     CLEAR     87  50  27 NE3       29.86R
6HR MIN TEMP:  86; 6HR MAX TEMP:  96;

$$

AZZ027-028-041300-
SOUTHWEST MARICOPA COUNTY AND PINAL COUNTY

CITY           SKY/WX    TMP DP  RH WIND       PRES   REMARKS
CASA GRANDE    CLEAR     82  54  36 CALM      29.86R
6HR MIN TEMP:  82; 6HR MAX TEMP:  97;

GILA BEND      FAIR      83  49  31 S5        29.80S
6HR MIN TEMP:  83; 6HR MAX TEMP:  96;

$$

AZZ503-504-507>509-041300-
SOUTHEAST ARIZONA

CITY           SKY/WX    TMP DP  RH WIND       PRES   REMARKS
TUCSON         CLEAR     79  62  56 CALM      29.98R
6HR MIN TEMP:  78; 6HR MAX TEMP:  88;

DAVIS-MONTHAN  CLEAR     77  61  57 S1        29.97R
6HR MIN TEMP:  77; 6HR MAX TEMP:  86;

NOGALES        CLEAR     65  59  81 E6        30.07R
6HR MIN TEMP:  65; 6HR MAX TEMP:  75;

SIERRA VISTA   CLEAR     71  55  55 W8        30.13R
6HR MIN TEMP:  67; 6HR MAX TEMP:  74;

SAFFORD        CLEAR     71  45  39 E6        29.98R
6HR MIN TEMP:  71; 6HR MAX TEMP:  87;

$$

AZZ020-021-025-026-031-041300-
SOUTHWEST ARIZONA

CITY           SKY/WX    TMP DP  RH WIND       PRES   REMARKS
YUMA           NOT AVBL
$$

CAZ031-033-041-043-047-048-061-041300-
SOUTHERN CALIFORNIA

CITY           SKY/WX    TMP DP  RH WIND       PRES   REMARKS
DOWNTOWN L.A.  CLEAR     68  61  78 CALM      29.87S
6HR MIN TEMP:  67; 6HR MAX TEMP:  72;

L.A. AIRPORT   PTCLDY    67  62  84 CALM      29.88S
6HR MIN TEMP:  67; 6HR MAX TEMP:  71;

SAN DIEGO      MOCLDY    70  64  81 N6        29.90R
6HR MIN TEMP:  70; 6HR MAX TEMP:  71;

BURBANK        CLEAR     69  57  65 CALM      29.89S
6HR MIN TEMP:  69; 6HR MAX TEMP:  74;

ONTARIO        PTCLDY    68  58  70 W3        29.89S
6HR MIN TEMP:  67; 6HR MAX TEMP:  74;

RIVERSIDE      CLEAR     69  61  75 CALM      29.89S
6HR MIN TEMP:  69; 6HR MAX TEMP:  74;

PALM SPRINGS   CLEAR     81  56  42 VRB3      29.79R
6HR MIN TEMP:  80; 6HR MAX TEMP:  94;

EL CENTRO NAS  CLEAR     75  50  41 S5        29.75R
6HR MIN TEMP:  73; 6HR MAX TEMP:  91;

IMPERIAL       CLEAR     78  53  41 SW6       29.73R
6HR MIN TEMP:  76; 6HR MAX TEMP:  93;

BLYTHE         CLEAR     82  45  27 CALM      29.76R
6HR MIN TEMP:  82; 6HR MAX TEMP:  97;

$$

NVZ020-UTZ003-041300-
SOUTHERN NEVADA-UTAH

CITY           SKY/WX    TMP DP  RH WIND       PRES   REMARKS
LAS VEGAS      NOT AVBL
SALT LAKE CITY CLEAR     60  53  77 S3        30.09R
6HR MIN TEMP:  60; 6HR MAX TEMP:  64;

$$

NMZ009-TXZ055-041300-
NEW MEXICO-WEST TEXAS

CITY           SKY/WX    TMP DP  RH WIND       PRES   REMARKS
ALBUQUERQUE    PTCLDY    65  53  65 NW5       30.17R
6HR MIN TEMP:  65; 6HR MAX TEMP:  78;

EL PASO        PTCLDY    73  60  63 S8        30.08R
6HR MIN TEMP:  73; 6HR MAX TEMP:  79;

$$


........................KEY........................
SKY/WX - SKY CONDITION/WEATHER
TMP    - TEMPERATURE IN FAHRENHEIT
DP     - DEW POINT IN FAHRENHEIT
RH     - RELATIVE HUMIDITY IN PERCENT
WIND   - DIRECTION AND SPEED IN MILES PER HOUR (MPH)
VRB    - VARIABLE WIND DIRECTION
PRES   - MEAN SEA LEVEL PRESSURE IN INCHES OF MERCURY
         F - FALLING PRESSURE   R - RISING PRESSURE
         S - STEADY PRESSURE
VSB    - VISIBILITY IN MILES
HX     - HEAT INDEX IN FAHRENHEIT
WCI    - WIND CHILL INDEX IN FAHRENHEIT
TC     - TEMPERATURE IN CELSIUS WHICH IS ALSO KNOWN AS
         TEMPERATURE IN CENTIGRADE
AFB    - AIR FORCE BASE
         LUKE AFB IS LUKE AIR FORCE BASE
         DAVIS-MONTHAN IS DAVIS-MONTHAN AIR FORCE BASE
NAS    - NAVAL AIR STATION
         EL CENTRO NAS IS EL CENTRO NAVAL AIR STATION
N/A    - NOT AVAILABLE



USA.gov is the U.S. government's official web portal to all federal, state and local government web resources and services.